Information on these data can be found in provided Readme document
Contact Info: Zachary Fasnacht (zachary.fasnacht@ssaihq.com); Nickolay Krotkov (nickolay.a.krotkov@nasa.gov); Lok Lamsal (lok.lamsal@nasa.gov)

FillValue: -999.
ScaleFactor: 1e15
Units: molecules/cm^2

Date(yyyy-mm-dd),City,Country,LonCenter,LatCenter,BoundingCoordinates,Median,Q1,Q3,Mean,Baseline_Median,Baseline_Q1,Baseline_Q3,Baseline_Mean,NumGoodSamples,NumTotalSamples
2015-01-01,Aichi,Japan,137.2924,35.0183,[136.7924 34.5183 137.7924 35.5183],5.939,3.853,8.784,6.32,4.259,2.546,6.218,4.667,165.0,582.0
2015-01-02,Aichi,Japan,137.2924,35.0183,[136.7924 34.5183 137.7924 35.5183],5.711,3.232,8.257,5.913,4.27,2.461,6.102,4.58,188.0,571.0
2015-01-03,Aichi,Japan,137.2924,35.0183,[136.7924 34.5183 137.7924 35.5183],5.87,3.151,8.257,6.024,4.4,2.531,6.478,4.822,161.0,567.0
2015-01-04,Aichi,Japan,137.2924,35.0183,[136.7924 34.5183 137.7924 35.5183],5.951,3.859,8.898,6.508,4.467,2.595,6.742,4.941,142.0,577.0
2015-01-05,Aichi,Japan,137.2924,35.0183,[136.7924 34.5183 137.7924 35.5183],5.87,3.264,8.75,6.267,4.502,2.487,6.671,4.934,172.0,589.0
2015-01-06,Aichi,Japan,137.2924,35.0183,[136.7924 34.5183 137.7924 35.5183],5.713,3.042,8.257,5.959,4.367,2.284,6.552,4.791,160.0,587.0
2015-01-07,Aichi,Japan,137.2924,35.0183,[136.7924 34.5183 137.7924 35.5183],5.713,3.042,8.257,5.959,4.544,2.338,7.182,5.161,160.0,580.0
2015-01-08,Aichi,Japan,137.2924,35.0183,[136.7924 34.5183 137.7924 35.5183],4.803,2.419,7.019,5.424,4.321,2.134,7.276,5.241,134.0,583.0
2015-01-09,Aichi,Japan,137.2924,35.0183,[136.7924 34.5183 137.7924 35.5183],5.575,3.083,7.337,5.939,4.848,2.482,7.705,5.567,162.0,573.0
2015-01-10,Aichi,Japan,137.2924,35.0183,[136.7924 34.5183 137.7924 35.5183],5.713,3.213,7.897,6.047,4.905,2.508,7.903,5.671,153.0,531.0
2015-01-11,Aichi,Japan,137.2924,35.0183,[136.7924 34.5183 137.7924 35.5183],4.752,2.405,6.912,5.175,5.122,2.533,7.648,5.594,176.0,529.0
2015-01-12,Aichi,Japan,137.2924,35.0183,[136.7924 34.5183 137.7924 35.5183],4.913,2.405,6.912,5.511,5.325,2.764,8.081,5.983,177.0,534.0
2015-01-13,Aichi,Japan,137.2924,35.0183,[136.7924 34.5183 137.7924 35.5183],4.752,2.405,6.463,5.337,5.628,3.211,8.457,6.328,165.0,541.0
2015-01-14,Aichi,Japan,137.2924,35.0183,[136.7924 34.5183 137.7924 35.5183],4.914,2.482,7.206,6.267,5.663,3.198,8.585,6.577,180.0,537.0
2015-01-15,Aichi,Japan,137.2924,35.0183,[136.7924 34.5183 137.7924 35.5183],4.74,2.474,6.912,6.161,5.906,3.264,8.7,6.75,164.0,542.0
2015-01-16,Aichi,Japan,137.2924,35.0183,[136.7924 34.5183 137.7924 35.5183],4.752,2.482,7.206,6.18,5.797,3.282,8.71,6.909,183.0,529.0
2015-01-17,Aichi,Japan,137.2924,35.0183,[136.7924 34.5183 137.7924 35.5183],4.726,2.538,8.047,6.612,6.251,3.457,9.313,7.308,160.0,538.0
2015-01-18,Aichi,Japan,137.2924,35.0183,[136.7924 34.5183 137.7924 35.5183],5.449,2.877,10.341,7.518,5.846,3.459,9.796,7.395,174.0,524.0
2015-01-19,Aichi,Japan,137.2924,35.0183,[136.7924 34.5183 137.7924 35.5183],5.423,2.824,9.622,7.344,6.067,3.48,10.584,7.799,163.0,521.0
2015-01-20,Aichi,Japan,137.2924,35.0183,[136.7924 34.5183 137.7924 35.5183],5.891,2.914,10.348,7.808,6.368,3.607,10.4,7.742,140.0,533.0
2015-01-21,Aichi,Japan,137.2924,35.0183,[136.7924 34.5183 137.7924 35.5183],5.891,2.914,10.348,7.717,6.557,3.872,10.271,7.946,159.0,543.0
2015-01-22,Aichi,Japan,137.2924,35.0183,[136.7924 34.5183 137.7924 35.5183],5.891,2.914,10.348,7.717,6.231,3.632,9.793,7.518,159.0,538.0
2015-01-23,Aichi,Japan,137.2924,35.0183,[136.7924 34.5183 137.7924 35.5183],5.891,2.914,10.348,7.717,5.963,3.629,9.531,7.497,159.0,527.0
2015-01-24,Aichi,Japan,137.2924,35.0183,[136.7924 34.5183 137.7924 35.5183],5.05,2.474,11.164,7.908,5.713,3.502,9.638,7.509,131.0,530.0
2015-01-25,Aichi,Japan,137.2924,35.0183,[136.7924 34.5183 137.7924 35.5183],3.895,2.388,9.661,7.026,5.354,3.448,9.208,7.233,152.0,567.0
2015-01-26,Aichi,Japan,137.2924,35.0183,[136.7924 34.5183 137.7924 35.5183],6.573,3.068,12.537,8.983,6.159,3.732,10.007,7.739,115.0,573.0
2015-01-27,Aichi,Japan,137.2924,35.0183,[136.7924 34.5183 137.7924 35.5183],4.897,2.914,9.478,7.263,6.265,3.718,9.25,7.438,146.0,572.0
2015-01-28,Aichi,Japan,137.2924,35.0183,[136.7924 34.5183 137.7924 35.5183],5.161,3.417,10.348,7.821,5.996,4.027,9.621,7.531,149.0,575.0
2015-01-29,Aichi,Japan,137.2924,35.0183,[136.7924 34.5183 137.7924 35.5183],5.124,3.357,9.478,6.731,6.037,3.884,9.737,7.437,134.0,583.0
2015-01-30,Aichi,Japan,137.2924,35.0183,[136.7924 34.5183 137.7924 35.5183],5.132,3.417,8.733,6.613,5.942,3.9,9.736,7.384,160.0,581.0
2015-01-31,Aichi,Japan,137.2924,35.0183,[136.7924 34.5183 137.7924 35.5183],5.099,3.417,8.733,6.64,6.19,3.816,9.452,7.224,141.0,588.0
2015-02-01,Aichi,Japan,137.2924,35.0183,[136.7924 34.5183 137.7924 35.5183],5.099,3.417,8.733,6.64,5.789,3.637,8.869,6.799,141.0,575.0
2015-02-02,Aichi,Japan,137.2924,35.0183,[136.7924 34.5183 137.7924 35.5183],3.967,2.751,6.655,5.15,6.089,3.67,9.228,6.952,127.0,586.0
2015-02-03,Aichi,Japan,137.2924,35.0183,[136.7924 34.5183 137.7924 35.5183],4.646,2.991,6.994,5.548,6.128,3.634,8.853,6.666,135.0,574.0
2015-02-04,Aichi,Japan,137.2924,35.0183,[136.7924 34.5183 137.7924 35.5183],4.063,2.794,6.66,5.179,6.024,3.692,9.204,6.744,128.0,567.0
2015-02-05,Aichi,Japan,137.2924,35.0183,[136.7924 34.5183 137.7924 35.5183],4.273,2.991,6.815,5.599,5.686,3.451,9.049,6.645,119.0,578.0
2015-02-06,Aichi,Japan,137.2924,35.0183,[136.7924 34.5183 137.7924 35.5183],4.646,2.991,6.892,5.818,5.938,3.568,9.332,6.829,134.0,589.0
2015-02-07,Aichi,Japan,137.2924,35.0183,[136.7924 34.5183 137.7924 35.5183],4.646,2.991,6.892,5.818,5.978,3.537,9.03,6.774,134.0,590.0
2015-02-08,Aichi,Japan,137.2924,35.0183,[136.7924 34.5183 137.7924 35.5183],4.646,2.991,6.892,5.818,5.902,3.45,8.941,6.672,134.0,579.0
2015-02-09,Aichi,Japan,137.2924,35.0183,[136.7924 34.5183 137.7924 35.5183],5.166,3.75,8.118,6.667,6.249,3.724,9.547,7.095,113.0,583.0
2015-02-10,Aichi,Japan,137.2924,35.0183,[136.7924 34.5183 137.7924 35.5183],5.166,3.75,8.118,6.667,5.964,3.603,9.44,6.992,113.0,573.0
2015-02-11,Aichi,Japan,137.2924,35.0183,[136.7924 34.5183 137.7924 35.5183],8.118,5.166,12.225,8.984,5.953,3.45,9.887,6.968,76.0,531.0
2015-02-12,Aichi,Japan,137.2924,35.0183,[136.7924 34.5183 137.7924 35.5183],6.216,4.94,8.064,7.1,5.908,3.282,9.125,6.7,88.0,527.0
2015-02-13,Aichi,Japan,137.2924,35.0183,[136.7924 34.5183 137.7924 35.5183],6.216,4.94,8.064,6.965,5.281,3.292,8.734,6.472,105.0,529.0
2015-02-14,Aichi,Japan,137.2924,35.0183,[136.7924 34.5183 137.7924 35.5183],6.216,4.575,8.118,6.889,5.068,3.094,8.309,6.185,85.0,535.0
2015-02-15,Aichi,Japan,137.2924,35.0183,[136.7924 34.5183 137.7924 35.5183],6.216,4.575,8.118,6.889,5.086,3.072,8.317,6.131,85.0,530.0
2015-02-16,Aichi,Japan,137.2924,35.0183,[136.7924 34.5183 137.7924 35.5183],6.216,4.575,8.118,6.889,5.333,3.273,8.686,6.395,85.0,537.0
2015-02-17,Aichi,Japan,137.2924,35.0183,[136.7924 34.5183 137.7924 35.5183],6.216,4.575,8.118,6.889,4.97,3.231,7.382,5.732,85.0,522.0
2015-02-18,Aichi,Japan,137.2924,35.0183,[136.7924 34.5183 137.7924 35.5183],5.983,3.859,6.919,6.438,4.848,3.062,7.205,5.718,77.0,533.0
2015-02-19,Aichi,Japan,137.2924,35.0183,[136.7924 34.5183 137.7924 35.5183],5.983,3.859,6.919,6.438,4.794,2.962,7.322,5.714,77.0,521.0
2015-02-20,Aichi,Japan,137.2924,35.0183,[136.7924 34.5183 137.7924 35.5183],5.919,3.858,6.606,5.729,5.134,3.131,8.06,6.08,67.0,517.0
2015-02-21,Aichi,Japan,137.2924,35.0183,[136.7924 34.5183 137.7924 35.5183],5.303,3.716,6.598,5.053,5.123,3.174,8.157,6.026,89.0,529.0
2015-02-22,Aichi,Japan,137.2924,35.0183,[136.7924 34.5183 137.7924 35.5183],5.303,3.716,6.598,5.053,5.07,3.122,8.063,5.955,89.0,538.0
2015-02-23,Aichi,Japan,137.2924,35.0183,[136.7924 34.5183 137.7924 35.5183],5.303,3.716,6.598,5.053,5.079,3.154,8.323,5.979,89.0,538.0
2015-02-24,Aichi,Japan,137.2924,35.0183,[136.7924 34.5183 137.7924 35.5183],5.303,3.716,6.598,5.053,4.82,3.192,7.681,5.58,89.0,526.0
2015-02-25,Aichi,Japan,137.2924,35.0183,[136.7924 34.5183 137.7924 35.5183],5.303,3.716,6.598,5.053,4.92,3.295,7.953,5.758,89.0,529.0
2015-02-26,Aichi,Japan,137.2924,35.0183,[136.7924 34.5183 137.7924 35.5183],5.627,3.776,6.919,5.377,5.141,3.59,7.697,5.85,110.0,566.0
2015-02-27,Aichi,Japan,137.2924,35.0183,[136.7924 34.5183 137.7924 35.5183],5.382,3.387,7.386,5.277,5.159,3.509,7.815,5.867,81.0,573.0
2015-02-28,Aichi,Japan,137.2924,35.0183,[136.7924 34.5183 137.7924 35.5183],5.303,3.304,7.386,5.259,5.29,3.489,7.922,5.963,64.0,570.0
2015-03-01,Aichi,Japan,137.2924,35.0183,[136.7924 34.5183 137.7924 35.5183],5.382,3.387,7.859,5.275,5.611,3.705,8.452,6.399,74.0,575.0
2015-03-02,Aichi,Japan,137.2924,35.0183,[136.7924 34.5183 137.7924 35.5183],5.382,3.387,7.859,5.275,5.771,3.702,8.319,6.376,74.0,584.0
2015-03-03,Aichi,Japan,137.2924,35.0183,[136.7924 34.5183 137.7924 35.5183],5.382,3.387,7.386,5.28,5.917,3.77,8.197,6.375,77.0,582.0
2015-03-04,Aichi,Japan,137.2924,35.0183,[136.7924 34.5183 137.7924 35.5183],5.382,3.387,7.386,5.28,6.008,3.859,8.363,6.502,77.0,587.0
2015-03-05,Aichi,Japan,137.2924,35.0183,[136.7924 34.5183 137.7924 35.5183],5.382,3.387,7.859,5.495,6.017,3.956,8.174,6.515,80.0,572.0
2015-03-06,Aichi,Japan,137.2924,35.0183,[136.7924 34.5183 137.7924 35.5183],5.382,3.387,7.859,5.495,6.72,4.061,8.769,7.032,80.0,583.0
2015-03-07,Aichi,Japan,137.2924,35.0183,[136.7924 34.5183 137.7924 35.5183],5.627,3.776,7.386,5.616,6.41,4.122,8.487,6.81,89.0,569.0
2015-03-08,Aichi,Japan,137.2924,35.0183,[136.7924 34.5183 137.7924 35.5183],5.764,3.936,8.019,6.153,6.525,4.203,8.352,6.897,52.0,565.0
2015-03-09,Aichi,Japan,137.2924,35.0183,[136.7924 34.5183 137.7924 35.5183],5.764,3.936,8.019,6.157,6.655,4.242,8.518,7.156,53.0,574.0
2015-03-10,Aichi,Japan,137.2924,35.0183,[136.7924 34.5183 137.7924 35.5183],5.764,3.936,8.019,6.695,6.616,4.495,8.779,7.362,83.0,585.0
2015-03-11,Aichi,Japan,137.2924,35.0183,[136.7924 34.5183 137.7924 35.5183],5.764,3.936,8.019,6.695,7.165,4.633,9.736,7.755,83.0,586.0
2015-03-12,Aichi,Japan,137.2924,35.0183,[136.7924 34.5183 137.7924 35.5183],5.764,3.936,8.019,6.695,6.897,4.641,9.167,7.462,83.0,576.0
2015-03-13,Aichi,Japan,137.2924,35.0183,[136.7924 34.5183 137.7924 35.5183],5.697,4.846,7.15,7.005,7.04,4.759,9.329,7.599,62.0,580.0
2015-03-14,Aichi,Japan,137.2924,35.0183,[136.7924 34.5183 137.7924 35.5183],6.302,5.207,7.065,6.821,7.107,5.067,9.514,7.695,79.0,569.0
2015-03-15,Aichi,Japan,137.2924,35.0183,[136.7924 34.5183 137.7924 35.5183],6.302,5.207,7.065,6.821,6.988,4.868,9.331,7.457,79.0,528.0
2015-03-16,Aichi,Japan,137.2924,35.0183,[136.7924 34.5183 137.7924 35.5183],5.947,4.151,6.93,6.192,6.868,4.635,9.132,7.11,88.0,525.0
2015-03-17,Aichi,Japan,137.2924,35.0183,[136.7924 34.5183 137.7924 35.5183],6.019,4.292,7.065,6.258,7.249,4.959,9.677,7.499,105.0,526.0
2015-03-18,Aichi,Japan,137.2924,35.0183,[136.7924 34.5183 137.7924 35.5183],5.947,3.929,7.065,6.104,7.231,4.755,9.579,7.365,112.0,527.0
2015-03-19,Aichi,Japan,137.2924,35.0183,[136.7924 34.5183 137.7924 35.5183],5.947,3.844,7.065,5.986,7.142,4.567,9.248,7.153,140.0,528.0
2015-03-20,Aichi,Japan,137.2924,35.0183,[136.7924 34.5183 137.7924 35.5183],5.873,3.684,7.065,5.842,7.388,4.781,9.694,7.345,137.0,536.0
2015-03-21,Aichi,Japan,137.2924,35.0183,[136.7924 34.5183 137.7924 35.5183],6.153,4.14,7.847,6.719,7.154,4.888,9.614,7.276,161.0,523.0
2015-03-22,Aichi,Japan,137.2924,35.0183,[136.7924 34.5183 137.7924 35.5183],6.114,3.594,7.847,6.807,7.203,4.836,9.903,7.569,152.0,535.0
2015-03-23,Aichi,Japan,137.2924,35.0183,[136.7924 34.5183 137.7924 35.5183],6.293,3.953,8.334,6.727,7.186,4.673,9.782,7.448,182.0,523.0
2015-03-24,Aichi,Japan,137.2924,35.0183,[136.7924 34.5183 137.7924 35.5183],6.293,3.953,8.334,6.726,6.977,4.442,9.456,7.243,181.0,522.0
2015-03-25,Aichi,Japan,137.2924,35.0183,[136.7924 34.5183 137.7924 35.5183],6.293,3.969,8.334,6.514,7.109,4.52,9.603,7.324,151.0,525.0
2015-03-26,Aichi,Japan,137.2924,35.0183,[136.7924 34.5183 137.7924 35.5183],6.229,3.844,8.272,6.459,7.018,4.597,9.641,7.28,158.0,533.0
2015-03-27,Aichi,Japan,137.2924,35.0183,[136.7924 34.5183 137.7924 35.5183],6.229,3.844,8.272,6.459,6.856,4.347,9.782,7.34,158.0,532.0
2015-03-28,Aichi,Japan,137.2924,35.0183,[136.7924 34.5183 137.7924 35.5183],6.293,3.844,8.26,6.464,6.972,4.526,9.611,7.374,160.0,521.0
2015-03-29,Aichi,Japan,137.2924,35.0183,[136.7924 34.5183 137.7924 35.5183],5.947,3.504,8.334,6.453,6.772,4.407,9.652,7.332,143.0,525.0
2015-03-30,Aichi,Japan,137.2924,35.0183,[136.7924 34.5183 137.7924 35.5183],5.947,3.594,8.334,6.455,6.913,4.524,9.659,7.453,146.0,561.0
2015-03-31,Aichi,Japan,137.2924,35.0183,[136.7924 34.5183 137.7924 35.5183],7.01,4.14,9.242,7.209,7.148,4.682,9.892,7.652,121.0,566.0
2015-04-01,Aichi,Japan,137.2924,35.0183,[136.7924 34.5183 137.7924 35.5183],6.733,4.14,9.242,7.166,6.699,4.403,9.495,7.364,106.0,563.0
2015-04-02,Aichi,Japan,137.2924,35.0183,[136.7924 34.5183 137.7924 35.5183],7.01,4.233,9.242,7.44,6.774,4.545,9.528,7.484,97.0,571.0
2015-04-03,Aichi,Japan,137.2924,35.0183,[136.7924 34.5183 137.7924 35.5183],7.472,4.422,9.414,7.926,6.973,4.727,10.034,7.802,69.0,571.0
2015-04-04,Aichi,Japan,137.2924,35.0183,[136.7924 34.5183 137.7924 35.5183],7.472,4.451,9.414,7.892,6.794,4.615,10.146,7.654,83.0,569.0
2015-04-05,Aichi,Japan,137.2924,35.0183,[136.7924 34.5183 137.7924 35.5183],6.733,4.233,8.384,6.468,6.405,4.434,9.849,7.266,62.0,577.0
2015-04-06,Aichi,Japan,137.2924,35.0183,[136.7924 34.5183 137.7924 35.5183],6.733,4.233,8.384,6.468,6.367,4.259,9.202,6.998,62.0,563.0
2015-04-07,Aichi,Japan,137.2924,35.0183,[136.7924 34.5183 137.7924 35.5183],6.669,4.432,7.932,6.368,6.419,4.282,9.524,7.201,32.0,573.0
2015-04-08,Aichi,Japan,137.2924,35.0183,[136.7924 34.5183 137.7924 35.5183],6.669,4.432,7.932,6.368,6.276,4.235,9.408,7.11,32.0,559.0
2015-04-09,Aichi,Japan,137.2924,35.0183,[136.7924 34.5183 137.7924 35.5183],6.669,4.432,7.932,6.368,5.974,4.001,8.266,6.573,32.0,562.0
2015-04-10,Aichi,Japan,137.2924,35.0183,[136.7924 34.5183 137.7924 35.5183],5.641,4.749,7.396,5.993,5.899,4.074,8.209,6.535,48.0,569.0
2015-04-11,Aichi,Japan,137.2924,35.0183,[136.7924 34.5183 137.7924 35.5183],5.6,4.017,7.426,5.932,5.966,4.072,8.324,6.462,78.0,578.0
2015-04-12,Aichi,Japan,137.2924,35.0183,[136.7924 34.5183 137.7924 35.5183],5.6,4.008,7.396,5.91,5.935,3.995,8.303,6.436,76.0,577.0
2015-04-13,Aichi,Japan,137.2924,35.0183,[136.7924 34.5183 137.7924 35.5183],5.6,4.008,7.396,5.91,6.157,3.907,8.577,6.623,76.0,567.0
2015-04-14,Aichi,Japan,137.2924,35.0183,[136.7924 34.5183 137.7924 35.5183],5.44,3.907,7.426,5.855,5.97,3.746,8.422,6.523,78.0,570.0
2015-04-15,Aichi,Japan,137.2924,35.0183,[136.7924 34.5183 137.7924 35.5183],5.6,3.907,7.641,6.088,5.728,3.547,7.918,6.281,85.0,561.0
2015-04-16,Aichi,Japan,137.2924,35.0183,[136.7924 34.5183 137.7924 35.5183],5.6,3.49,7.641,6.122,5.226,3.316,7.663,5.943,83.0,522.0
2015-04-17,Aichi,Japan,137.2924,35.0183,[136.7924 34.5183 137.7924 35.5183],5.699,4.017,7.932,6.581,5.247,3.353,7.653,5.968,99.0,499.0
2015-04-18,Aichi,Japan,137.2924,35.0183,[136.7924 34.5183 137.7924 35.5183],5.6,3.904,7.718,6.289,5.178,3.261,7.402,5.771,132.0,507.0
2015-04-19,Aichi,Japan,137.2924,35.0183,[136.7924 34.5183 137.7924 35.5183],5.273,3.232,7.502,5.875,5.113,3.136,7.368,5.649,141.0,513.0
2015-04-20,Aichi,Japan,137.2924,35.0183,[136.7924 34.5183 137.7924 35.5183],5.273,3.232,7.641,6.143,5.279,3.324,7.369,5.68,164.0,510.0
2015-04-21,Aichi,Japan,137.2924,35.0183,[136.7924 34.5183 137.7924 35.5183],5.273,3.213,7.641,6.135,5.053,3.096,6.927,5.4,170.0,514.0
2015-04-22,Aichi,Japan,137.2924,35.0183,[136.7924 34.5183 137.7924 35.5183],5.333,3.232,7.641,6.204,5.105,3.187,6.967,5.389,173.0,500.0
2015-04-23,Aichi,Japan,137.2924,35.0183,[136.7924 34.5183 137.7924 35.5183],5.333,3.232,7.641,6.204,5.042,3.109,6.854,5.324,173.0,511.0
2015-04-24,Aichi,Japan,137.2924,35.0183,[136.7924 34.5183 137.7924 35.5183],5.699,4.03,8.795,6.578,5.19,3.339,7.342,5.545,204.0,499.0
2015-04-25,Aichi,Japan,137.2924,35.0183,[136.7924 34.5183 137.7924 35.5183],5.75,3.989,9.223,6.812,5.168,3.304,7.28,5.564,181.0,499.0
2015-04-26,Aichi,Japan,137.2924,35.0183,[136.7924 34.5183 137.7924 35.5183],5.75,3.991,9.223,6.762,5.1,3.432,7.11,5.477,162.0,510.0
2015-04-27,Aichi,Japan,137.2924,35.0183,[136.7924 34.5183 137.7924 35.5183],5.75,3.991,9.223,6.762,5.078,3.436,7.019,5.389,162.0,521.0
2015-04-28,Aichi,Japan,137.2924,35.0183,[136.7924 34.5183 137.7924 35.5183],5.699,3.904,9.117,6.595,4.86,3.199,6.742,5.132,188.0,521.0
2015-04-29,Aichi,Japan,137.2924,35.0183,[136.7924 34.5183 137.7924 35.5183],5.623,3.121,8.986,6.275,4.689,2.998,6.672,4.968,203.0,514.0
2015-04-30,Aichi,Japan,137.2924,35.0183,[136.7924 34.5183 137.7924 35.5183],5.594,3.121,8.724,6.196,4.652,3.058,6.68,5.011,196.0,516.0
2015-05-01,Aichi,Japan,137.2924,35.0183,[136.7924 34.5183 137.7924 35.5183],5.592,3.522,7.545,6.033,5.157,3.329,6.805,5.326,224.0,554.0
2015-05-02,Aichi,Japan,137.2924,35.0183,[136.7924 34.5183 137.7924 35.5183],5.475,3.365,7.036,5.794,5.141,3.283,6.637,5.237,207.0,580.0
2015-05-03,Aichi,Japan,137.2924,35.0183,[136.7924 34.5183 137.7924 35.5183],5.102,3.311,6.569,5.526,5.129,3.422,6.594,5.306,211.0,587.0
2015-05-04,Aichi,Japan,137.2924,35.0183,[136.7924 34.5183 137.7924 35.5183],5.125,3.505,6.747,5.57,5.225,3.574,6.771,5.458,218.0,614.0
2015-05-05,Aichi,Japan,137.2924,35.0183,[136.7924 34.5183 137.7924 35.5183],5.102,3.489,6.458,5.368,5.181,3.511,6.767,5.402,192.0,621.0
2015-05-06,Aichi,Japan,137.2924,35.0183,[136.7924 34.5183 137.7924 35.5183],5.138,3.522,6.569,5.484,5.221,3.603,6.854,5.452,211.0,622.0
2015-05-07,Aichi,Japan,137.2924,35.0183,[136.7924 34.5183 137.7924 35.5183],5.125,3.522,6.516,5.379,5.091,3.444,6.657,5.314,217.0,627.0
2015-05-08,Aichi,Japan,137.2924,35.0183,[136.7924 34.5183 137.7924 35.5183],5.125,3.522,6.569,5.414,5.108,3.547,6.784,5.357,222.0,610.0
2015-05-09,Aichi,Japan,137.2924,35.0183,[136.7924 34.5183 137.7924 35.5183],4.619,3.174,5.946,4.788,4.956,3.391,6.627,5.162,191.0,620.0
2015-05-10,Aichi,Japan,137.2924,35.0183,[136.7924 34.5183 137.7924 35.5183],4.522,3.102,5.637,4.615,4.902,3.322,6.525,5.076,219.0,607.0
2015-05-11,Aichi,Japan,137.2924,35.0183,[136.7924 34.5183 137.7924 35.5183],4.534,3.134,5.637,4.677,5.114,3.407,6.562,5.183,208.0,604.0
2015-05-12,Aichi,Japan,137.2924,35.0183,[136.7924 34.5183 137.7924 35.5183],4.619,3.174,5.876,4.806,4.91,3.251,6.598,5.079,212.0,612.0
2015-05-13,Aichi,Japan,137.2924,35.0183,[136.7924 34.5183 137.7924 35.5183],4.728,3.174,5.871,4.855,5.062,3.332,6.663,5.174,215.0,622.0
2015-05-14,Aichi,Japan,137.2924,35.0183,[136.7924 34.5183 137.7924 35.5183],4.784,3.522,6.049,5.094,5.091,3.538,6.767,5.376,221.0,617.0
2015-05-15,Aichi,Japan,137.2924,35.0183,[136.7924 34.5183 137.7924 35.5183],4.819,3.522,6.158,5.126,5.222,3.628,6.763,5.383,239.0,609.0
2015-05-16,Aichi,Japan,137.2924,35.0183,[136.7924 34.5183 137.7924 35.5183],4.782,3.417,6.158,5.032,5.061,3.469,6.691,5.242,214.0,610.0
2015-05-17,Aichi,Japan,137.2924,35.0183,[136.7924 34.5183 137.7924 35.5183],4.748,3.426,6.223,5.022,5.07,3.5,6.735,5.276,222.0,601.0
2015-05-18,Aichi,Japan,137.2924,35.0183,[136.7924 34.5183 137.7924 35.5183],4.921,3.674,6.738,5.294,5.111,3.535,6.971,5.42,185.0,572.0
2015-05-19,Aichi,Japan,137.2924,35.0183,[136.7924 34.5183 137.7924 35.5183],5.864,4.168,7.616,5.834,5.245,3.648,7.075,5.465,191.0,546.0
2015-05-20,Aichi,Japan,137.2924,35.0183,[136.7924 34.5183 137.7924 35.5183],5.84,4.168,7.616,5.858,5.073,3.492,6.733,5.265,225.0,548.0
2015-05-21,Aichi,Japan,137.2924,35.0183,[136.7924 34.5183 137.7924 35.5183],5.76,3.981,7.613,5.732,5.007,3.386,6.702,5.196,206.0,555.0
2015-05-22,Aichi,Japan,137.2924,35.0183,[136.7924 34.5183 137.7924 35.5183],5.775,4.017,7.613,5.809,5.129,3.525,6.828,5.372,197.0,555.0
2015-05-23,Aichi,Japan,137.2924,35.0183,[136.7924 34.5183 137.7924 35.5183],5.637,3.981,7.598,5.697,5.196,3.654,6.965,5.416,213.0,563.0
2015-05-24,Aichi,Japan,137.2924,35.0183,[136.7924 34.5183 137.7924 35.5183],5.091,3.7,7.152,5.468,5.104,3.6,6.903,5.413,233.0,548.0
2015-05-25,Aichi,Japan,137.2924,35.0183,[136.7924 34.5183 137.7924 35.5183],6.101,4.079,7.621,5.903,5.211,3.673,6.946,5.419,205.0,559.0
2015-05-26,Aichi,Japan,137.2924,35.0183,[136.7924 34.5183 137.7924 35.5183],5.97,4.079,7.621,5.884,5.204,3.634,6.874,5.37,208.0,546.0
2015-05-27,Aichi,Japan,137.2924,35.0183,[136.7924 34.5183 137.7924 35.5183],5.864,3.915,7.598,5.762,5.267,3.736,6.864,5.403,204.0,542.0
2015-05-28,Aichi,Japan,137.2924,35.0183,[136.7924 34.5183 137.7924 35.5183],5.175,3.923,6.701,5.442,5.049,3.634,6.672,5.293,215.0,552.0
2015-05-29,Aichi,Japan,137.2924,35.0183,[136.7924 34.5183 137.7924 35.5183],5.055,3.895,6.506,5.367,5.067,3.626,6.657,5.267,189.0,563.0
2015-05-30,Aichi,Japan,137.2924,35.0183,[136.7924 34.5183 137.7924 35.5183],5.175,3.923,6.506,5.46,5.013,3.531,6.572,5.248,197.0,562.0
2015-05-31,Aichi,Japan,137.2924,35.0183,[136.7924 34.5183 137.7924 35.5183],5.175,3.923,6.506,5.443,5.039,3.555,6.603,5.271,200.0,554.0
2015-06-01,Aichi,Japan,137.2924,35.0183,[136.7924 34.5183 137.7924 35.5183],5.175,3.923,6.701,5.494,5.03,3.526,6.672,5.266,192.0,553.0
2015-06-02,Aichi,Japan,137.2924,35.0183,[136.7924 34.5183 137.7924 35.5183],5.175,3.923,6.701,5.494,4.901,3.641,6.405,5.065,192.0,569.0
2015-06-03,Aichi,Japan,137.2924,35.0183,[136.7924 34.5183 137.7924 35.5183],4.548,3.368,5.448,4.792,4.717,3.483,6.141,4.896,156.0,594.0
2015-06-04,Aichi,Japan,137.2924,35.0183,[136.7924 34.5183 137.7924 35.5183],4.548,3.368,5.413,4.601,4.88,3.655,6.374,5.031,122.0,637.0
2015-06-05,Aichi,Japan,137.2924,35.0183,[136.7924 34.5183 137.7924 35.5183],4.55,3.399,5.436,4.686,4.926,3.584,6.432,5.05,135.0,639.0
2015-06-06,Aichi,Japan,137.2924,35.0183,[136.7924 34.5183 137.7924 35.5183],4.548,3.368,5.448,4.667,5.035,3.584,6.757,5.202,145.0,645.0
2015-06-07,Aichi,Japan,137.2924,35.0183,[136.7924 34.5183 137.7924 35.5183],4.55,3.368,5.771,4.703,4.982,3.541,6.849,5.18,124.0,644.0
2015-06-08,Aichi,Japan,137.2924,35.0183,[136.7924 34.5183 137.7924 35.5183],4.835,3.923,6.004,4.993,5.035,3.625,6.94,5.242,109.0,650.0
2015-06-09,Aichi,Japan,137.2924,35.0183,[136.7924 34.5183 137.7924 35.5183],4.835,3.923,6.004,4.993,5.092,3.767,6.975,5.262,109.0,635.0
2015-06-10,Aichi,Japan,137.2924,35.0183,[136.7924 34.5183 137.7924 35.5183],4.765,3.923,6.053,5.003,4.9,3.631,6.943,5.203,106.0,645.0
2015-06-11,Aichi,Japan,137.2924,35.0183,[136.7924 34.5183 137.7924 35.5183],4.765,3.923,6.053,5.003,5.024,3.701,7.107,5.361,106.0,633.0
2015-06-12,Aichi,Japan,137.2924,35.0183,[136.7924 34.5183 137.7924 35.5183],5.793,3.598,6.982,5.537,5.171,3.862,7.237,5.519,66.0,629.0
2015-06-13,Aichi,Japan,137.2924,35.0183,[136.7924 34.5183 137.7924 35.5183],5.671,3.428,6.982,5.507,5.819,4.079,7.654,5.862,67.0,639.0
2015-06-14,Aichi,Japan,137.2924,35.0183,[136.7924 34.5183 137.7924 35.5183],4.028,2.924,6.138,4.431,6.04,4.238,7.507,5.899,46.0,648.0
2015-06-15,Aichi,Japan,137.2924,35.0183,[136.7924 34.5183 137.7924 35.5183],3.65,2.582,6.205,4.304,5.867,4.253,7.553,5.931,40.0,647.0
2015-06-16,Aichi,Japan,137.2924,35.0183,[136.7924 34.5183 137.7924 35.5183],5.2,2.926,9.186,6.243,6.002,4.232,7.906,6.177,57.0,640.0
2015-06-17,Aichi,Japan,137.2924,35.0183,[136.7924 34.5183 137.7924 35.5183],5.2,2.926,9.186,6.272,6.108,4.222,8.071,6.264,59.0,643.0
2015-06-18,Aichi,Japan,137.2924,35.0183,[136.7924 34.5183 137.7924 35.5183],5.193,4.024,7.631,5.891,6.15,4.264,8.033,6.238,79.0,612.0
2015-06-19,Aichi,Japan,137.2924,35.0183,[136.7924 34.5183 137.7924 35.5183],5.193,4.024,7.631,5.891,5.97,4.036,7.847,6.049,79.0,546.0
2015-06-20,Aichi,Japan,137.2924,35.0183,[136.7924 34.5183 137.7924 35.5183],5.2,4.069,6.86,5.959,6.073,4.095,7.852,6.178,60.0,544.0
2015-06-21,Aichi,Japan,137.2924,35.0183,[136.7924 34.5183 137.7924 35.5183],5.118,3.063,6.852,5.37,5.773,3.752,7.612,5.853,82.0,547.0
2015-06-22,Aichi,Japan,137.2924,35.0183,[136.7924 34.5183 137.7924 35.5183],5.118,3.094,6.774,5.4,5.764,3.668,7.806,5.844,90.0,552.0
2015-06-23,Aichi,Japan,137.2924,35.0183,[136.7924 34.5183 137.7924 35.5183],5.118,3.18,6.852,5.407,5.751,3.678,7.791,5.832,88.0,550.0